Truth Or Consequences, NM

7:41 PM MDT on July 21, 2017 (GMT -0600)
Truth Or Consequences Municipal

Weather History for KTCS - April, 2013

Change the Weather History Date:

Tuesday, April 23, 2013

  Actual Average Record
Temperature  
Mean Temperature 66 °F -  
Max Temperature 84 °F 77 °F 93 °F (2002)
Min Temperature 48 °F 47 °F 39 °F (2001)
Degree Days  
Heating Degree Days 0    
Month to date heating degree days 108  
Since 1 July heating degree days 2937  
Cooling Degree Days 1    
Month to date cooling degree days 24  
Year to date cooling degree days 26  
Growing Degree Days 17 (Base 50)    
Moisture  
Dew Point 12 °F    
Average Humidity 17    
Maximum Humidity 29    
Minimum Humidity 4    
Precipitation  
Precipitation 0.00 in - 0.00 in (2017)
Month to date precipitation T  
Year to date precipitation 0.14  
Sea Level Pressure  
Sea Level Pressure 29.70 in    
Wind  
Wind Speed 12 mph (West)    
Max Wind Speed 30 mph    
Max Gust Speed 39 mph    
Visibility 10 miles    
Events      
T = Trace of Precipitation, MM = Missing Value Source: NWS Daily Summary

Daily Weather History Graph

Daily Weather History Graph

Search for Another Location

Airport or City:

Trip Planner

Search our weather history database for the weather conditions in past years. The results will help you decide how hot, cold, wet, or windy it might be!

Date:

Astronomy

Apr. 23, 2013 Rise Set
Actual Time 6:29 AM MDT 7:45 PM MDT
Civil Twilight 6:03 AM MDT 8:11 PM MDT
Nautical Twilight 5:32 AM MDT 8:42 PM MDT
Astronomical Twilight 5:00 AM MDT 9:15 PM MDT
Moon 5:49 PM MDT (4/23) 4:52 AM MDT (4/23)
Length of Visible Light 14h 08m
Length of Day
13h 16m
Waxing Gibbous, 94% of the Moon is Illuminated
Apr 23
Waxing Gibbous
Apr 25
Full
May 2
Last Quarter
May 9
New
May 17
First Quarter

Hourly Weather History & Observations

Time (MDT) Temp. Dew Point Humidity Pressure Visibility Wind Dir Wind Speed Gust Speed Precip Events Conditions
12:53 AM 62.1 °F 8.1 °F 12% 29.67 in 10.0 mi WNW 8.1 mph - N/A   Clear
1:53 AM 60.1 °F 8.1 °F 13% 29.66 in 10.0 mi WNW 6.9 mph - N/A   Clear
2:53 AM 59.0 °F 9.0 °F 14% 29.65 in 10.0 mi WNW 9.2 mph - N/A   Clear
3:53 AM 57.0 °F 10.0 °F 15% 29.66 in 10.0 mi WNW 9.2 mph - N/A   Clear
4:53 AM 55.0 °F 10.9 °F 17% 29.66 in 10.0 mi WNW 9.2 mph - N/A   Clear
5:53 AM 55.9 °F 10.9 °F 17% 29.68 in 10.0 mi South 3.5 mph - N/A   Clear
6:53 AM 54.0 °F 10.9 °F 18% 29.72 in 10.0 mi SSW 3.5 mph - N/A   Clear
7:53 AM 61.0 °F 12.9 °F 15% 29.72 in 10.0 mi Calm Calm - N/A   Clear
8:53 AM 64.9 °F 14.0 °F 14% 29.71 in 10.0 mi East 6.9 mph - N/A   Clear
9:53 AM 68.0 °F 14.0 °F 12% 29.70 in 10.0 mi SSE 5.8 mph - N/A   Clear
10:53 AM 72.0 °F 15.1 °F 11% 29.68 in 10.0 mi SE 9.2 mph - N/A   Clear
11:53 AM 78.1 °F 9.0 °F 7% 29.65 in 10.0 mi SW 10.4 mph 16.1 mph N/A   Clear
12:53 PM 81.0 °F 3.0 °F 5% 29.62 in 10.0 mi SSW 16.1 mph 26.5 mph N/A   Clear
1:53 PM 82.9 °F 5.0 °F 5% 29.58 in 10.0 mi West 21.9 mph 35.7 mph N/A   Clear
2:53 PM 84.0 °F 3.9 °F 5% 29.57 in 10.0 mi SW 25.3 mph 32.2 mph N/A   Clear
3:53 PM 82.9 °F 7.0 °F 6% 29.57 in 10.0 mi WSW 21.9 mph 31.1 mph N/A   Clear
4:53 PM 82.9 °F 6.1 °F 5% 29.58 in 10.0 mi West 20.7 mph 35.7 mph N/A   Clear
5:53 PM 81.0 °F 9.0 °F 6% 29.60 in 10.0 mi WSW 16.1 mph 33.4 mph N/A   Clear
6:53 PM 80.1 °F 14.0 °F 8% 29.64 in 10.0 mi NW 20.7 mph 27.6 mph N/A   Clear
7:53 PM 63.0 °F 21.0 °F 20% 29.73 in 6.0 mi NE 25.3 mph 31.1 mph N/A   Haze
8:26 PM 60.8 °F 19.4 °F 20% 29.94 in 10.0 mi NE 12.7 mph 23.0 mph N/A   Scattered Clouds
8:53 PM 60.1 °F 19.9 °F 21% 29.79 in 10.0 mi NNE 8.1 mph - N/A   Clear
9:53 PM 55.9 °F 21.0 °F 26% 29.87 in 10.0 mi NNE 10.4 mph 19.6 mph N/A   Clear
10:53 PM 53.1 °F 19.9 °F 27% 29.88 in 10.0 mi North 11.5 mph - N/A   Clear
11:53 PM 50.0 °F 19.9 °F 31% 29.91 in 10.0 mi North 12.7 mph 20.7 mph N/A   Clear